FFM2700 WMKP-WMKL

Flight info

Callsign FFM2700
Flight time 0h 18m
Altitude 10000
Route OMBOK DCT KAPKO KAPKO1E
Aircraft B738/M-SDE2E3FGHIRWXY/LB1

Departure

Time 2026-04-28 15:30
Airport Penang International Airport (WMKP)

Arrival

Time 2026-04-28 15:48
Airport Langkawi International Airport (WMKL)
Time Latitude Longitude Altitude Speed Heading
2026-04-28 15:08 5.29222 100.26648 22 ft 0 kts 311°
2026-04-28 15:20 5.29221 100.26649 22 ft 2 kts 311°
2026-04-28 15:21 5.29206 100.26668 22 ft 4 kts 304°
2026-04-28 15:21 5.29192 100.26691 22 ft 4 kts 292°
2026-04-28 15:21 5.29186 100.26716 22 ft 4 kts 260°
2026-04-28 15:21 5.29193 100.26732 22 ft 1 kts 220°
2026-04-28 15:22 5.29195 100.26734 22 ft 0 kts 220°
2026-04-28 15:25 5.29192 100.26732 22 ft 3 kts 220°
2026-04-28 15:25 5.29169 100.26711 22 ft 6 kts 220°
2026-04-28 15:25 5.29131 100.26678 23 ft 9 kts 221°
2026-04-28 15:26 5.29076 100.26630 22 ft 12 kts 221°
2026-04-28 15:26 5.29005 100.26567 23 ft 15 kts 222°
2026-04-28 15:26 5.28928 100.26497 22 ft 14 kts 217°
2026-04-28 15:26 5.28837 100.26501 24 ft 14 kts 137°
2026-04-28 15:27 5.28773 100.26568 22 ft 13 kts 146°
2026-04-28 15:27 5.28690 100.26587 24 ft 9 kts 148°
2026-04-28 15:27 5.28676 100.26601 22 ft 0 kts 130°
2026-04-28 15:28 5.28669 100.26609 22 ft 4 kts 130°
2026-04-28 15:28 5.28653 100.26628 24 ft 4 kts 130°
2026-04-28 15:28 5.28634 100.26650 22 ft 7 kts 129°
2026-04-28 15:29 5.28626 100.26687 22 ft 8 kts 78°
2026-04-28 15:29 5.28664 100.26730 22 ft 10 kts 43°
2026-04-28 15:29 5.28845 100.26896 28 ft 68 kts 42°
2026-04-28 15:29 5.29359 100.27363 24 ft 129 kts 42°
2026-04-28 15:30 5.30155 100.28077 84 ft 173 kts 41°
2026-04-28 15:30 5.31101 100.28929 531 ft 190 kts 42°
2026-04-28 15:30 5.32047 100.29801 1466 ft 172 kts 43°
2026-04-28 15:30 5.32885 100.30587 2349 ft 167 kts 44°
2026-04-28 15:31 5.33803 100.31438 2677 ft 189 kts 37°
2026-04-28 15:31 5.34943 100.32152 3250 ft 196 kts 27°
2026-04-28 15:31 5.36259 100.32627 3723 ft 211 kts 11°
2026-04-28 15:31 5.37775 100.32753 4011 ft 226 kts 357°
2026-04-28 15:32 5.39331 100.32475 4652 ft 219 kts 345°
2026-04-28 15:32 5.40819 100.31994 5046 ft 240 kts 344°
2026-04-28 15:32 5.42511 100.31486 5193 ft 266 kts 344°
2026-04-28 15:32 5.44351 100.31009 5631 ft 278 kts 347°
2026-04-28 15:33 5.46255 100.30572 6313 ft 282 kts 347°
2026-04-28 15:33 5.48178 100.30145 7056 ft 285 kts 348°
2026-04-28 15:33 5.50130 100.29720 7735 ft 289 kts 348°
2026-04-28 15:33 5.52076 100.29161 8376 ft 295 kts 332°
2026-04-28 15:34 5.53616 100.27805 9066 ft 298 kts 310°
2026-04-28 15:34 5.54935 100.26184 9723 ft 302 kts 309°
2026-04-28 15:34 5.56257 100.24536 9979 ft 310 kts 309°
2026-04-28 15:34 5.57674 100.22793 10016 ft 335 kts 309°
2026-04-28 15:35 5.59214 100.20929 10022 ft 358 kts 310°
2026-04-28 15:35 5.61167 100.18598 10018 ft 380 kts 310°
2026-04-28 15:36 5.62459 100.17069 10014 ft 388 kts 310°
2026-04-28 15:36 5.64189 100.15030 10001 ft 388 kts 310°
2026-04-28 15:36 5.65937 100.12974 9988 ft 386 kts 310°
2026-04-28 15:37 5.67680 100.10925 9991 ft 386 kts 310°
2026-04-28 15:37 5.69423 100.08878 9995 ft 385 kts 310°
2026-04-28 15:37 5.71159 100.06837 10004 ft 385 kts 310°
2026-04-28 15:37 5.73032 100.04918 9998 ft 385 kts 320°
2026-04-28 15:38 5.75224 100.03375 10015 ft 385 kts 331°
2026-04-28 15:38 5.77628 100.02184 10014 ft 385 kts 335°
2026-04-28 15:38 5.80063 100.01053 10011 ft 386 kts 335°
2026-04-28 15:38 5.82499 99.99921 10003 ft 386 kts 335°
2026-04-28 15:39 5.84935 99.98774 10005 ft 387 kts 335°
2026-04-28 15:39 5.87357 99.97620 10006 ft 379 kts 335°
2026-04-28 15:39 5.89682 99.96508 9999 ft 362 kts 335°
2026-04-28 15:39 5.91897 99.95442 10000 ft 343 kts 334°
2026-04-28 15:40 5.94004 99.94450 10015 ft 328 kts 335°
2026-04-28 15:40 5.95843 99.93207 10015 ft 313 kts 315°
2026-04-28 15:40 5.97125 99.91504 10021 ft 298 kts 302°
2026-04-28 15:40 5.98195 99.89767 10003 ft 286 kts 301°
2026-04-28 15:41 5.99200 99.88097 9719 ft 285 kts 301°
2026-04-28 15:41 6.00233 99.86382 9299 ft 288 kts 301°
2026-04-28 15:41 6.01274 99.84663 8992 ft 287 kts 301°
2026-04-28 15:41 6.02318 99.82955 8715 ft 286 kts 301°
2026-04-28 15:42 6.03357 99.81259 8451 ft 283 kts 302°
2026-04-28 15:42 6.04386 99.79581 8136 ft 281 kts 301°
2026-04-28 15:42 6.05402 99.77911 7758 ft 281 kts 301°
2026-04-28 15:42 6.06428 99.76240 7469 ft 279 kts 301°
2026-04-28 15:43 6.07444 99.74589 7230 ft 277 kts 301°
2026-04-28 15:43 6.08451 99.72954 6946 ft 273 kts 301°
2026-04-28 15:43 6.09445 99.71340 6513 ft 271 kts 301°
2026-04-28 15:43 6.10558 99.69822 6013 ft 271 kts 320°
2026-04-28 15:44 6.12208 99.68987 5600 ft 267 kts 349°
2026-04-28 15:44 6.14025 99.69020 5359 ft 255 kts 13°
2026-04-28 15:44 6.15646 99.69607 5255 ft 241 kts 25°
2026-04-28 15:44 6.17183 99.70116 5112 ft 227 kts
2026-04-28 15:45 6.18651 99.69763 5028 ft 210 kts 334°
2026-04-28 15:45 6.19877 99.69077 4933 ft 194 kts 328°
2026-04-28 15:45 6.20987 99.68383 4632 ft 189 kts 331°
2026-04-28 15:45 6.22238 99.67882 4035 ft 202 kts 346°
2026-04-28 15:46 6.23620 99.67735 3674 ft 200 kts
2026-04-28 15:46 6.25021 99.67894 3123 ft 204 kts 13°
2026-04-28 15:46 6.26344 99.68380 2536 ft 202 kts 25°
2026-04-28 15:46 6.27569 99.69069 1964 ft 200 kts 32°
2026-04-28 15:47 6.28708 99.69852 1415 ft 196 kts 37°
2026-04-28 15:47 6.29781 99.70660 921 ft 191 kts 34°
2026-04-28 15:47 6.30861 99.71410 504 ft 187 kts 35°
2026-04-28 15:47 6.31923 99.72148 108 ft 182 kts 34°
2026-04-28 15:48 6.32911 99.72822 34 ft 161 kts 33°
2026-04-28 15:48 6.33692 99.73355 35 ft 83 kts 34°
2026-04-28 15:48 6.33924 99.73515 36 ft 19 kts 34°
2026-04-28 15:48 6.34027 99.73490 36 ft 17 kts 304°
2026-04-28 15:49 6.34092 99.73396 34 ft 7 kts 305°
2026-04-28 15:49 6.34117 99.73375 35 ft 5 kts 338°
2026-04-28 15:49 6.34145 99.73358 35 ft 5 kts 313°
2026-04-28 15:49 6.34163 99.73332 35 ft 3 kts 303°
2026-04-28 15:50 6.34169 99.73324 35 ft 0 kts 303°